Location: Arboucave
(43.6130°N, 0.4343°W)
Time: 11:50:14
(UTC+00:00)

SL-16 R/B - Pass Details

Date: 17 November 2025
Orbit: 985 x 1006 km, 99.8° (Epoch: 11 December)

Event Time Altitude Azimuth Distance (km) Brightness Sun altitude
Rises 17:59:11 0° 6° (N) 3,745 5.4 -15.3°
Reaches altitude 10° 18:02:01 10° 355° (N) 2,790 4.8 -15.8°
Maximum altitude 18:07:10 28° 299° (WNW) 1,790 4.4 -16.7°
Drops below altitude 10° 18:12:18 10° 244° (WSW) 2,770 6.0 -17.6°
Sets 18:15:07 0° 233° (SW) 3,713 6.6 -18.1°
